Location: *
(34.8620°S, 39.3380°E)
Time: 20:56:36
(UTC+00:00)

ISS - Pass Details

Date: 29 October 2021
Orbit: 417 x 423 km, 51.6° (Epoch: 28 November)

Event Time Altitude Azimuth Distance (km) Brightness Sun altitude
Rises 17:31:42 0° 214° (SW) 2,415 1.3 -19.7°
Reaches altitude 10° 17:34:31 10° 190° (S) 1,544 -0.3 -20.2°
Maximum altitude 17:36:38 15° 152° (SSE) 1,263 -1.3 -20.5°
Enters shadow 17:37:00 15° 145° (SE) 1,271 -1.3 -20.6°
